• In Uzbekistan
  • List of Countries
  • For 7 days
  • Water Temperature
  • Satellite Maps
  • Weather Map
  • Weather Widgets
  • user-avatar
    Login

    Hourly Weather Hveredzh

    Today, 19 June, Tuesday

    Time Temperature Precipitation Wind Pressure Humidity
    00:00 +8°C° 0 mm 1 mps 598 mmHg 74%
    01:00 +8°C° 0 mm 1 mps 598 mmHg 74%
    02:00 +8°C° 0 mm 1 mps 598 mmHg 73%
    03:00 +8°C° 0 mm 1 mps 597 mmHg 72%
    04:00 +9°C° 0 mm 1 mps 598 mmHg 70%
    05:00 +10°C° 0 mm 1 mps 599 mmHg 67%
    06:00 +10°C° 0 mm 0 mps 600 mmHg 65%
    07:00 +13°C° 0 mm 1 mps 600 mmHg 63%
    08:00 +14°C° 0 mm 1 mps 601 mmHg 61%
    09:00 +15°C° 0 mm 2 mps 602 mmHg 59%
    10:00 +15°C° 0.2 mm 2 mps 602 mmHg 60%
    11:00 +15°C° 0.2 mm 2 mps 602 mmHg 61%
    12:00 +15°C° 0.2 mm 2 mps 602 mmHg 62%
    13:00 +15°C° 0.2 mm 2 mps 602 mmHg 62%
    14:00 +15°C° 0.2 mm 2 mps 602 mmHg 62%
    15:00 +15°C° 0.2 mm 2 mps 602 mmHg 63%
    16:00 +15°C° 0.1 mm 2 mps 602 mmHg 64%
    17:00 +15°C° 0.1 mm 2 mps 602 mmHg 65%
    18:00 +14°C° 0.1 mm 1 mps 602 mmHg 66%
    19:00 +13°C° 0 mm 1 mps 601 mmHg 69%
    20:00 +11°C° 0 mm 1 mps 601 mmHg 71%
    21:00 +9°C° 0 mm 2 mps 600 mmHg 73%
    22:00 +9°C° 0 mm 2 mps 600 mmHg 72%
    23:00 +8°C° 0 mm 2 mps 601 mmHg 70%

    Tomorrow, 20 June, Wednesday

    Time Temperature Precipitation Wind Pressure Humidity
    00:00 +8°C° 0 mm 2 mps 601 mmHg 68%
    01:00 +8°C° 0 mm 2 mps 601 mmHg 68%
    02:00 +8°C° 0 mm 2 mps 601 mmHg 67%
    03:00 +9°C° 0 mm 1 mps 601 mmHg 67%
    04:00 +10°C° 0 mm 1 mps 601 mmHg 66%
    05:00 +11°C° 0 mm 1 mps 602 mmHg 66%
    06:00 +12°C° 0 mm 1 mps 602 mmHg 65%
    07:00 +13°C° 0.1 mm 1 mps 603 mmHg 63%
    08:00 +14°C° 0.1 mm 1 mps 603 mmHg 61%
    09:00 +15°C° 0.1 mm 1 mps 604 mmHg 60%
    10:00 +16°C° 0.2 mm 2 mps 604 mmHg 61%
    11:00 +16°C° 0.2 mm 2 mps 604 mmHg 62%
    12:00 +16°C° 0.2 mm 2 mps 604 mmHg 64%
    13:00 +16°C° 0.8 mm 2 mps 604 mmHg 64%
    14:00 +16°C° 0.8 mm 2 mps 604 mmHg 64%
    15:00 +16°C° 0.8 mm 2 mps 603 mmHg 65%
    16:00 +15°C° 0.8 mm 2 mps 603 mmHg 67%
    17:00 +15°C° 0.8 mm 1 mps 603 mmHg 69%
    18:00 +14°C° 0.8 mm 1 mps 603 mmHg 72%
    19:00 +13°C° 0.2 mm 1 mps 603 mmHg 74%
    20:00 +12°C° 0.2 mm 1 mps 602 mmHg 77%
    21:00 +11°C° 0.2 mm 1 mps 602 mmHg 79%
    22:00 +11°C° 0.1 mm 1 mps 602 mmHg 79%
    23:00 +10°C° 0.1 mm 1 mps 602 mmHg 79%

    Day after tomorrow, 21 June, Thursday

    Time Temperature Precipitation Wind Pressure Humidity
    00:00 +10°C° 0.1 mm 1 mps 602 mmHg 79%
    01:00 +10°C° 0 mm 1 mps 602 mmHg 78%
    02:00 +9°C° 0 mm 2 mps 602 mmHg 77%
    03:00 +9°C° 0 mm 2 mps 602 mmHg 76%
    04:00 +9°C° 0 mm 2 mps 602 mmHg 74%
    05:00 +11°C° 0 mm 1 mps 603 mmHg 72%
    06:00 +12°C° 0 mm 1 mps 603 mmHg 70%
    07:00 +14°C° 0 mm 2 mps 604 mmHg 63%
    08:00 +15°C° 0 mm 2 mps 604 mmHg 55%
    09:00 +17°C° 0 mm 2 mps 605 mmHg 48%
    10:00 +17°C° 0 mm 2 mps 605 mmHg 48%
    11:00 +18°C° 0 mm 2 mps 605 mmHg 48%
    12:00 +18°C° 0 mm 2 mps 605 mmHg 48%
    13:00 +18°C° 0 mm 2 mps 605 mmHg 49%
    14:00 +18°C° 0 mm 2 mps 604 mmHg 50%
    15:00 +18°C° 0 mm 2 mps 604 mmHg 51%
    16:00 +17°C° 0 mm 2 mps 604 mmHg 54%
    17:00 +18°C° 0 mm 1 mps 604 mmHg 58%
    18:00 +16°C° 0 mm 1 mps 603 mmHg 61%
    19:00 +15°C° 0 mm 1 mps 603 mmHg 65%
    20:00 +13°C° 0 mm 2 mps 602 mmHg 69%
    21:00 +10°C° 0 mm 2 mps 602 mmHg 73%
    22:00 +10°C° 0 mm 2 mps 602 mmHg 73%
    23:00 +10°C° 0 mm 2 mps 601 mmHg 74%

    22 June, Friday

    Time Temperature Precipitation Wind Pressure Humidity
    00:00 +9°C° 0 mm 2 mps 601 mmHg 75%
    01:00 +9°C° 0 mm 2 mps 601 mmHg 74%
    02:00 +9°C° 0 mm 2 mps 601 mmHg 74%
    03:00 +9°C° 0 mm 2 mps 601 mmHg 73%
    04:00 +10°C° 0 mm 2 mps 601 mmHg 71%
    05:00 +13°C° 0 mm 2 mps 602 mmHg 69%
    06:00 +14°C° 0 mm 1 mps 602 mmHg 68%
    07:00 +15°C° 0 mm 1 mps 603 mmHg 61%
    08:00 +17°C° 0 mm 2 mps 603 mmHg 54%
    09:00 +19°C° 0 mm 2 mps 604 mmHg 47%
    10:00 +19°C° 0 mm 2 mps 604 mmHg 46%
    11:00 +20°C° 0 mm 3 mps 604 mmHg 45%
    12:00 +21°C° 0 mm 3 mps 604 mmHg 43%
    13:00 +21°C° 0.1 mm 3 mps 603 mmHg 44%
    14:00 +21°C° 0.1 mm 3 mps 603 mmHg 44%
    15:00 +21°C° 0.1 mm 3 mps 603 mmHg 45%
    16:00 +20°C° 0 mm 3 mps 602 mmHg 48%
    17:00 +19°C° 0 mm 2 mps 602 mmHg 51%
    18:00 +18°C° 0 mm 2 mps 601 mmHg 54%
    19:00 +16°C° 0 mm 2 mps 601 mmHg 57%
    20:00 +14°C° 0 mm 2 mps 600 mmHg 59%
    21:00 +13°C° 0 mm 2 mps 599 mmHg 62%
    22:00 +12°C° 0 mm 2 mps 599 mmHg 61%
    23:00 +12°C° 0 mm 2 mps 599 mmHg 59%

    23 June, Saturday

    Time Temperature Precipitation Wind Pressure Humidity
    00:00 +12°C° 0 mm 2 mps 599 mmHg 58%
    01:00 +12°C° 0 mm 2 mps 599 mmHg 56%
    02:00 +12°C° 0 mm 2 mps 598 mmHg 54%
    03:00 +12°C° 0 mm 2 mps 598 mmHg 53%
    04:00 +13°C° 0 mm 2 mps 599 mmHg 53%
    05:00 +14°C° 0 mm 2 mps 599 mmHg 54%
    06:00 +15°C° 0 mm 2 mps 600 mmHg 54%
    07:00 +17°C° 0 mm 2 mps 600 mmHg 49%
    08:00 +18°C° 0 mm 2 mps 601 mmHg 45%
    09:00 +20°C° 0 mm 2 mps 602 mmHg 40%
    10:00 +21°C° 0.1 mm 2 mps 602 mmHg 40%
    11:00 +23°C° 0.1 mm 2 mps 602 mmHg 40%
    12:00 +22°C° 0.1 mm 3 mps 602 mmHg 40%
    13:00 +23°C° 0.3 mm 2 mps 602 mmHg 42%
    14:00 +23°C° 0.3 mm 2 mps 602 mmHg 43%
    15:00 +23°C° 0.3 mm 2 mps 601 mmHg 45%
    16:00 +21°C° 0.2 mm 2 mps 601 mmHg 49%
    17:00 +20°C° 0.2 mm 2 mps 601 mmHg 53%
    18:00 +20°C° 0.2 mm 1 mps 601 mmHg 58%
    19:00 +18°C° 0 mm 1 mps 600 mmHg 60%
    20:00 +16°C° 0 mm 2 mps 600 mmHg 62%
    21:00 +14°C° 0 mm 2 mps 600 mmHg 64%
    22:00 +14°C° 0 mm 2 mps 599 mmHg 61%
    23:00 +14°C° 0 mm 2 mps 599 mmHg 58%

    24 June, Sunday

    Time Temperature Precipitation Wind Pressure Humidity
    00:00 +13°C° 0 mm 2 mps 599 mmHg 55%
    01:00 +13°C° 0 mm 2 mps 599 mmHg 53%
    02:00 +13°C° 0 mm 2 mps 599 mmHg 51%
    03:00 +13°C° 0 mm 2 mps 599 mmHg 49%
    04:00 +14°C° 0 mm 2 mps 600 mmHg 51%
    05:00 +15°C° 0 mm 2 mps 601 mmHg 53%
    06:00 +16°C° 0 mm 1 mps 601 mmHg 54%
    07:00 +18°C° 0 mm 2 mps 602 mmHg 51%
    08:00 +19°C° 0 mm 2 mps 603 mmHg 48%
    09:00 +21°C° 0 mm 2 mps 604 mmHg 45%
    10:00 +21°C° 0.2 mm 2 mps 604 mmHg 45%
    11:00 +23°C° 0.2 mm 2 mps 604 mmHg 46%
    12:00 +22°C° 0.2 mm 3 mps 604 mmHg 46%
    13:00 +22°C° 0.4 mm 3 mps 604 mmHg 47%
    14:00 +22°C° 0.4 mm 3 mps 604 mmHg 48%
    15:00 +23°C° 0.4 mm 2 mps 604 mmHg 49%
    16:00 +21°C° 0.1 mm 2 mps 604 mmHg 53%
    17:00 +21°C° 0.1 mm 2 mps 604 mmHg 56%
    18:00 +20°C° 0.1 mm 2 mps 603 mmHg 60%
    19:00 +19°C° 0 mm 1 mps 603 mmHg 63%
    20:00 +16°C° 0 mm 1 mps 603 mmHg 67%
    21:00 +15°C° 0 mm 1 mps 602 mmHg 71%
    22:00 +14°C° 0 mm 2 mps 602 mmHg 69%
    23:00 +14°C° 0 mm 2 mps 602 mmHg 68%
    Show more